Location: Broletto
(44.6000°N, 10.5833°E)
Time: 01:49:21
(UTC+00:00)

USA 215 - Pass Details

Date: 18 April 2021
Orbit: 1101 x 1107 km, 123.0° (Epoch: 07 May)

Event Time Altitude Azimuth Distance (km) Brightness Sun altitude
Exits shadow 20:45:38 50° 147° (SSE) 1,373 3.3 -24.6°
Maximum altitude 20:47:29 78° 221° (SW) 1,128 3.2 -24.8°
Drops below altitude 10° 20:54:03 10° 308° (NW) 2,963 6.5 -25.6°
Sets 20:56:33 0° 310° (NW) 3,924 7.4 -25.9°
